This is the latest recevied weather packets stored in our database for station/object SA3PJN-WX. If no packets are shown the sender has not sent any weather packets the latest 10 day(s).
| Time | Temp. | Humidity | Pressure | Rain* | Wind** | Luminosity | Snow |
|---|---|---|---|---|---|---|---|
| 1777457409 | 6.67° C | 95% | 981.2 hPa | - | - | - | - |
| 1777457109 | 6.67° C | 95% | 981.3 hPa | - | - | - | - |
| 1777456809 | 6.67° C | 94% | 981.1 hPa | - | - | - | - |
| 1777456509 | 6.67° C | 94% | 981.3 hPa | - | - | - | - |
| 1777456209 | 7.22° C | 94% | 981.2 hPa | - | - | - | - |
| 1777455909 | 6.67° C | 96% | 981.2 hPa | - | - | - | - |
| 1777455609 | 6.67° C | 96% | 981.5 hPa | - | - | - | - |
| 1777455309 | 6.11° C | 96% | 981.5 hPa | - | - | - | - |
| 1777455009 | 6.67° C | 95% | 981.4 hPa | - | - | - | - |
| 1777454709 | 6.67° C | 95% | 981.4 hPa | - | - | - | - |
| 1777454409 | 6.67° C | 96% | 981.3 hPa | - | - | - | - |
| 1777454109 | 6.67° C | 97% | 981.3 hPa | - | - | - | - |
| 1777453809 | 6.11° C | 97% | 981.4 hPa | - | - | - | - |
| 1777453509 | 6.11° C | 96% | 981.3 hPa | - | - | - | - |
| 1777453209 | 6.11° C | 95% | 981.5 hPa | - | - | - | - |
| 1777452909 | 6.67° C | 95% | 981.4 hPa | - | - | - | - |
| 1777452609 | 6.11° C | 96% | 981.4 hPa | - | - | - | - |
| 1777452309 | 6.11° C | 95% | 981.4 hPa | - | - | - | - |
| 1777451979 | 6.67° C | 94% | 981.4 hPa | - | - | - | - |
| 1777451678 | 6.67° C | 94% | 981.3 hPa | - | - | - | - |
| 1777451348 | 6.67° C | 93% | 981.4 hPa | - | - | - | - |
| 1777451048 | 6.67° C | 93% | 981.5 hPa | - | - | - | - |
| 1777450718 | 6.11° C | 93% | 981.6 hPa | - | - | - | - |
| 1777450418 | 6.11° C | 94% | 981.7 hPa | - | - | - | - |
| 1777450088 | 5.56° C | 93% | 981.6 hPa | - | - | - | - |
* Rain since midnight (hover to see other rain measurements)
** Current wind speed in m/s (hover to see current wind gust speed)